Location: Chevoux
(46.3801°N, 4.9476°E)
Time: 11:46:26
(UTC+00:00)

PSLV R/B - Pass Details

Date: 28 January 2021
Orbit: 567 x 598 km, 98.2° (Epoch: 06 March)

Event Time Altitude Azimuth Distance (km) Brightness Sun altitude
Exits shadow 18:28:25 - 12° (NNE) 2,346 6.8 -18.9°
Reaches altitude 10° 18:29:23 10° 11° (N) 1,949 6.4 -19.1°
Maximum altitude 18:33:36 78° 286° (WNW) 617 4.1 -19.8°
Drops below altitude 10° 18:37:47 10° 200° (SSW) 1,926 6.9 -20.5°
Sets 18:39:56 0° 199° (SSW) 2,820 7.8 -20.9°
